• Join FlightAware (Why Join?)
  • Login
  • US Flag GB Flag 
12:37 EDT


 

Airport Tracker/Info


-or-


 

Live Flight TrackerFlight Track Log ✈ N51EM ✈ 23-Oct-2013 ✈ KABE - CYYT

Flight Track Log - Related Links

Times and Time Zones

All times are in EDT time to prevent confusion due to time zone crossing. See the N51EM flight status page for this flight to view local times or setup timezone preferences in your user account.

Time Position Orientation Groundspeed Altitude Reporting Facility
EDT Latitude Longitude Course Direction KTS MPH feet Rate Location/Type
15:35 40.5989 -75.5350 301° West 265 305 3,700  Level New York Center
15:36 40.6314 -75.6058 301° West 214 246 7,400 2,700 Climbing New York Center
15:37 40.7083 -75.6056 360° North 190 219 9,200 1,740 Climbing New York Center
15:38 40.7903 -75.5922 North 250 288 10,900 1,500 Climbing New York Center
15:39 40.8742 -75.5764 North 316 364 12,200 2,160 Climbing New York Center
15:40 40.9772 -75.5561 North 333 383 15,300 2,340 Climbing New York Center
15:41 41.0633 -75.5400 North 333 383 16,900 780 Climbing New York Center
15:42 41.1578 -75.5192 North 338 389 16,900 1,320 Level New York Center
15:44 41.3764 -75.4711 North 439 505 20,900 1,440 Climbing New York Center
15:45 41.4897 -75.4458 North 428 493 21,300 1,200 Climbing New York Center
15:46 41.5819 -75.3772 29° Northeast 389 448 23,300 1,740 Climbing New York Center
15:48 41.7931 -75.3472 North 387 445 26,900 1,860 Climbing Boston Center
15:49 41.9172 -75.3336 North 377 434 29,300 1,680 Climbing Boston Center
15:50 42.0167 -75.3236 North 362 417 30,400 840 Climbing Boston Center
15:51 42.1042 -75.2311 38° Northeast 423 487 31,100 600 Climbing Boston Center
15:52 42.1628 -75.1064 58° Northeast 433 498 31,700 600 Climbing Boston Center
15:53 42.2403 -74.9339 59° Northeast 446 513 32,400 600 Climbing Boston Center
15:54 42.3072 -74.7872 58° Northeast 463 533 33,000 540 Climbing Boston Center
15:55 42.3769 -74.6383 58° Northeast 501 577 33,600 480 Climbing Boston Center
15:56 42.4447 -74.4831 59° Northeast 509 586 34,100 480 Climbing Boston Center
15:57 42.5133 -74.3272 59° Northeast 492 566 34,700 540 Climbing Boston Center
15:58 42.5856 -74.1692 58° Northeast 490 564 35,300 480 Climbing Boston Center
15:59 42.6569 -74.0081 59° Northeast 495 570 35,800 480 Climbing Boston Center
16:00 42.7275 -73.8489 59° Northeast 493 567 36,400 540 Climbing Boston Center
16:01 42.7986 -73.6922 58° Northeast 488 562 36,900 540 Climbing Boston Center
16:02 42.8700 -73.5358 58° Northeast 485 558 37,500  Climbing Boston Center
16:03 42.9558 -73.3469 58° Northeast 484 557 37,000 -960 Descending Boston Center
16:04 43.0322 -73.1817 58° Northeast 500 575 35,600 -960 Descending Boston Center
16:05 43.1117 -73.0028 59° Northeast 534 615 35,100 -300 Descending Boston Center
16:06 43.1908 -72.8294 58° Northeast 537 618 35,100 -60 Level Boston Center
16:07 43.2653 -72.6578 59° Northeast 529 609 35,000 -60 Descending Boston Center
16:08 43.3397 -72.4967 58° Northeast 509 586 35,000  Level Boston Center
16:09 43.4094 -72.3342 59° Northeast 499 574 35,000  Level Boston Center
16:10 43.4789 -72.1758 59° Northeast 488 562 35,000  Level Boston Center
16:11 43.5461 -72.0233 59° Northeast 474 545 35,000  Level Boston Center
16:13 43.6183 -71.8900 53° Northeast 456 525 35,000  Level Boston Center
16:14 43.7131 -71.9372 340° North 338 389 35,000  Level Boston Center
16:15 43.7119 -72.0342 269° West 263 303 35,000 -360 Level Boston Center
16:16 43.6739 -72.1242 240° Southwest 287 330 34,300 -780 Descending Boston Center
16:17 43.6244 -72.2144 233° Southwest 297 342 33,500 -840 Descending Boston Center
16:18 43.5739 -72.3083 233° Southwest 303 349 32,600 -1,200 Descending Boston Center
16:19 43.5225 -72.4033 233° Southwest 309 356 31,100 -1,380 Descending Boston Center
16:20 43.4692 -72.5028 234° Southwest 322 371 29,900 -1,200 Descending Boston Center
16:21 43.4161 -72.6006 233° Southwest 321 369 28,700 -1,320 Descending Boston Center
16:22 43.3533 -72.7150 233° Southwest 317 365 27,200 -1,440 Descending Boston Center
16:23 43.3003 -72.8119 233° Southwest 318 366 25,900 -1,320 Descending Boston Center
16:24 43.2469 -72.9089 233° Southwest 319 367 24,600 -960 Descending Boston Center
16:25 43.1908 -73.0125 233° Southwest 319 367 24,000 -480 Descending Boston Center
16:26 43.1436 -73.0992 233° Southwest 313 360 23,700 -660 Descending Boston Center
16:27 43.0906 -73.1936 232° Southwest 314 361 22,700 -1,020 Descending Boston Center
16:28 43.0344 -73.2936 233° Southwest 328 377 21,700 -1,080 Descending Boston Center
16:29 42.9436 -73.3758 214° Southwest 344 396 20,500 -1,200 Descending Boston Center
16:30 42.8550 -73.4133 197° South 336 387 19,300 -1,380 Descending Boston Center
16:31 42.7606 -73.4564 199° South 335 386 17,800 -1,320 Descending Boston Center
16:32 42.6742 -73.4942 198° South 327 376 16,600 -1,140 Descending Boston Center
16:33 42.5881 -73.5300 197° South 326 375 15,500 -1,200 Descending Boston Center
16:34 42.4956 -73.5675 197° South 321 369 14,300 -1,200 Descending Boston Center
16:35 42.4103 -73.6017 196° South 320 368 13,200 -1,140 Descending Boston Center
16:36 42.3222 -73.6381 197° South 325 374 12,000 -1,140 Descending Boston Center
16:37 42.2350 -73.6744 197° South 328 377 10,900 -840 Descending Boston Center
16:38 42.1411 -73.7122 197° South 330 380 10,400 -1,140 Descending Boston Center
16:39 42.0500 -73.7511 198° South 344 396 8,600 -1,800 Descending Boston Center
16:40 41.9664 -73.7847 197° South 311 358 6,800 -1,920 Descending Boston Center
16:41 41.8897 -73.8172 198° South 269 310 4,800 -1,020 Descending Boston Center
16:43 41.7500 -73.8167 180° South 228 262 3,700 -600 Descending New York TRACON
16:44 41.6833 -73.8000 169° South 231 266 3,000 -360 Descending New York TRACON
16:45 41.6167 -73.8000 180° South 220 253 3,000  Level New York TRACON
16:46 41.5667 -73.8167 194° South 225 259 3,000 -240 Level New York TRACON
16:47 41.5500 -73.8833 252° West 196 226 2,600 -300 Descending New York TRACON
16:48 41.5333 -73.9500 252° West 194 223 2,400 -480 Descending New York TRACON
16:49 41.5167 -74.0167 252° West 194 223 1,700 -780 Descending New York TRACON
16:50 41.5167 -74.0667 270° West 134 154 900 -840 Descending New York TRACON
16:52 41.5000 -74.1000 254° West  Level FlightAware Approximate
16:59 41.8017 -73.3709 254° West  Level Estimated
17:00 41.8444 -73.2662 254° West  Level Estimated
17:01 41.8870 -73.1613 254° West  Level Estimated
17:02 41.9295 -73.0564 254° West  Level Estimated
17:03 41.9720 -72.9512 254° West  Level Estimated
17:04 42.0143 -72.8460 254° West  Level Estimated
17:05 42.0565 -72.7405 254° West  Level Estimated
17:06 42.0987 -72.6350 254° West  Level Estimated
17:07 42.1407 -72.5293 254° West  Level Estimated